Time[GMT],dominant_wave_period[s](0m),mean_wave_direction[degrees](0m),max_wave_height[m](0m),significant_wave_height[m](0m),mean_wave_direction_spread[degrees](0m)
2019-08-23 18:00,3.6,75.60,1.38,0.82,34.00
2019-08-23 19:00,13.3,71.60,1.19,0.71,36.00
2019-08-23 20:00,13.3,81.60,1.30,0.74,36.00
2019-08-23 21:00,13.3,78.60,1.16,0.78,32.00
2019-08-23 22:00,13.3,83.60,1.25,0.77,33.00
2019-08-23 23:00,4.9,78.60,1.29,0.80,31.00
2019-08-24 00:00,13.3,79.60,1.33,0.79,31.00
2019-08-24 01:00,12.5,80.60,1.36,0.80,30.00
2019-08-24 02:00,12.5,79.60,1.33,0.81,30.00
2019-08-24 03:00,3.4,82.60,1.28,0.85,32.00
2019-08-24 04:00,3.9,78.60,1.37,0.84,31.00
2019-08-24 05:00,6.1,72.60,1.33,0.83,34.00
2019-08-24 06:00,5.9,71.60,1.22,0.84,32.00
2019-08-24 07:00,5.6,72.60,1.24,0.78,34.00
2019-08-24 08:00,12.5,69.60,1.11,0.77,34.00
2019-08-24 09:00,5.4,72.60,1.25,0.71,40.00
2019-08-24 10:00,12.5,66.60,1.08,0.71,35.00
2019-08-24 11:00,11.8,70.60,1.05,0.68,36.00
2019-08-24 12:00,11.8,67.60,1.36,0.70,34.00
2019-08-24 13:00,11.8,65.60,1.03,0.63,34.00
2019-08-24 14:00,11.8,69.60,1.00,0.69,36.00
2019-08-24 15:00,5.9,73.60,1.00,0.68,37.00
2019-08-24 16:00,11.1,73.60,0.97,0.66,36.00
2019-08-24 17:00,11.8,73.60,0.95,0.62,37.00
2019-08-24 18:00,11.8,71.60,1.02,0.63,37.00
2019-08-24 19:00,11.8,69.60,1.17,0.64,36.00
2019-08-24 20:00,8.7,67.60,1.31,0.64,36.00
2019-08-24 21:00,5.3,74.60,1.14,0.67,37.00
2019-08-24 22:00,11.8,71.60,0.93,0.61,37.00
2019-08-24 23:00,4.7,73.60,1.07,0.64,37.00
2019-08-25 00:00,4.3,81.60,1.10,0.65,35.00
2019-08-25 01:00,4.5,81.60,1.08,0.67,33.00
2019-08-25 02:00,3.6,79.60,1.10,0.63,35.00
2019-08-25 03:00,4.2,84.60,1.20,0.70,30.00
2019-08-25 04:00,11.8,78.60,1.06,0.67,33.00
2019-08-25 05:00,3.1,78.60,1.21,0.63,33.00
2019-08-25 06:00,4.2,73.60,1.17,0.67,34.00
2019-08-25 07:00,4.4,73.60,1.04,0.66,35.00
2019-08-25 08:00,3.2,79.60,1.27,0.70,34.00
2019-08-25 09:00,4.1,80.60,1.08,0.70,35.00
2019-08-25 10:00,5.0,82.60,1.22,0.74,31.00
2019-08-25 11:00,4.7,82.60,1.26,0.72,32.00
2019-08-25 12:00,5.0,85.60,1.42,0.80,29.00
2019-08-25 13:00,4.3,80.60,1.20,0.81,30.00
2019-08-25 14:00,5.3,86.60,1.37,0.81,26.00
2019-08-25 15:00,4.8,87.60,1.27,0.77,29.00
2019-08-25 16:00,5.6,86.60,1.15,0.71,30.00
2019-08-25 17:00,5.4,83.60,1.19,0.69,33.00
2019-08-25 18:00,5.7,80.60,1.05,0.65,33.00
2019-08-25 19:00,5.6,84.60,1.27,0.66,32.00
2019-08-25 20:00,5.6,80.60,1.14,0.66,34.00
2019-08-25 21:00,5.4,82.60,0.89,0.56,39.00
2019-08-25 22:00,5.1,81.60,0.90,0.50,35.00
2019-08-25 23:00,5.6,80.60,1.00,0.53,33.00
2019-08-26 00:00,5.9,82.60,0.82,0.48,34.00
2019-08-26 01:00,5.9,84.60,1.10,0.51,32.00
2019-08-26 02:00,5.6,85.60,0.96,0.54,31.00
2019-08-26 03:00,4.9,87.60,0.88,0.50,32.00
2019-08-26 04:00,3.1,90.60,0.99,0.59,31.00
2019-08-26 05:00,3.6,86.60,0.91,0.62,33.00
2019-08-26 06:00,3.9,84.60,0.97,0.60,34.00
2019-08-26 07:00,3.2,79.60,0.94,0.60,35.00
2019-08-26 08:00,4.3,73.60,0.87,0.59,34.00
2019-08-26 09:00,4.8,78.60,0.96,0.61,33.00
2019-08-26 10:00,5.3,79.60,1.09,0.63,34.00
2019-08-26 11:00,2.9,84.60,1.16,0.63,32.00
2019-08-26 12:00,4.8,86.60,0.97,0.61,30.00
2019-08-26 13:00,4.4,87.60,1.17,0.64,29.00
2019-08-26 14:00,4.8,85.60,1.22,0.70,27.00
2019-08-26 15:00,4.8,90.60,1.05,0.66,27.00
2019-08-26 16:00,3.1,90.60,0.97,0.61,33.00
2019-08-26 17:00,5.0,91.60,1.09,0.63,32.00
2019-08-26 18:00,5.6,86.60,1.19,0.61,28.00
2019-08-26 19:00,2.7,83.60,1.10,0.61,31.00
2019-08-26 20:00,3.2,84.60,0.98,0.60,33.00
2019-08-26 21:00,3.6,83.60,0.84,0.53,34.00
2019-08-26 22:00,5.1,80.60,0.84,0.51,34.00
2019-08-26 23:00,5.6,81.60,0.81,0.49,35.00
2019-08-27 00:00,5.1,77.60,0.74,0.48,35.00
2019-08-27 01:00,5.4,73.60,0.89,0.59,35.00
2019-08-27 02:00,2.8,74.60,0.94,0.58,34.00
2019-08-27 03:00,3.4,80.60,1.07,0.65,34.00
2019-08-27 04:00,4.0,78.60,1.05,0.60,36.00
2019-08-27 05:00,4.4,71.60,0.93,0.56,39.00
2019-08-27 06:00,4.7,75.60,0.85,0.53,41.00
2019-08-27 07:00,5.0,70.60,0.97,0.52,40.00
2019-08-27 08:00,5.1,76.60,1.02,0.52,38.00
2019-08-27 09:00,4.9,81.60,1.05,0.54,43.00
2019-08-27 10:00,4.8,76.60,0.92,0.53,32.00
2019-08-27 11:00,5.1,69.60,0.89,0.54,36.00
2019-08-27 12:00,5.4,66.60,0.82,0.48,39.00
2019-08-27 13:00,5.0,70.60,0.92,0.49,38.00
2019-08-27 14:00,4.7,66.60,0.87,0.53,36.00
2019-08-27 15:00,4.5,71.60,0.82,0.53,36.00
2019-08-27 16:00,5.1,70.60,0.88,0.57,36.00
2019-08-27 17:00,5.4,76.60,1.03,0.59,37.00
2019-08-27 18:00,5.1,70.60,1.03,0.61,35.00
2019-08-27 19:00,2.7,58.60,1.06,0.60,37.00
2019-08-27 20:00,2.6,58.60,0.99,0.60,39.00
2019-08-27 21:00,3.6,49.60,1.07,0.64,36.00
2019-08-27 22:00,2.9,45.60,1.36,0.72,34.00
2019-08-27 23:00,3.6,47.60,1.13,0.71,36.00
2019-08-28 00:00,4.3,53.60,1.13,0.69,38.00
2019-08-28 01:00,5.0,58.60,0.98,0.68,38.00
2019-08-28 02:00,5.3,62.60,1.16,0.70,39.00
2019-08-28 03:00,5.1,66.60,1.35,0.74,39.00
2019-08-28 04:00,3.1,62.60,1.13,0.75,40.00
2019-08-28 05:00,4.7,66.60,1.28,0.82,37.00
2019-08-28 06:00,5.6,75.60,1.29,0.82,40.00
2019-08-28 07:00,5.6,72.60,1.14,0.74,44.00
2019-08-28 08:00,5.7,68.60,1.26,0.78,41.00
2019-08-28 09:00,6.1,78.60,1.58,0.94,36.00
2019-08-28 10:00,6.1,71.60,1.47,0.85,39.00
2019-08-28 11:00,6.1,66.60,1.63,0.89,37.00
2019-08-28 12:00,5.4,64.60,1.48,0.86,38.00
2019-08-28 13:00,5.7,69.60,1.65,1.02,35.00
2019-08-28 14:00,5.6,69.60,1.56,0.93,37.00
2019-08-28 15:00,6.3,78.60,1.56,0.97,34.00
2019-08-28 16:00,6.7,80.60,1.32,0.87,36.00
2019-08-28 17:00,7.1,77.60,1.29,0.87,37.00
2019-08-28 18:00,6.9,71.60,1.47,0.95,35.00
2019-08-28 19:00,10.0,81.60,2.05,1.26,28.00
2019-08-28 20:00,9.1,37.60,1.62,1.09,32.00
2019-08-28 21:00,7.7,55.60,1.72,1.16,36.00
2019-08-28 22:00,8.0,140.60,1.91,1.06,35.00
2019-08-28 23:00,7.1,143.60,1.58,0.92,35.00
2019-08-29 00:00,7.1,130.60,1.54,0.99,34.00
2019-08-29 01:00,6.9,135.60,1.33,0.94,37.00
2019-08-29 02:00,6.3,150.60,1.50,0.99,34.00
2019-08-29 03:00,5.7,145.60,1.86,1.00,36.00
2019-08-29 04:00,8.0,145.60,1.59,0.93,34.00
2019-08-29 05:00,6.9,141.60,1.61,0.97,36.00
2019-08-29 06:00,7.7,128.60,1.34,0.84,43.00
2019-08-29 07:00,7.4,144.60,1.26,0.75,40.00
2019-08-29 08:00,6.1,115.60,1.26,0.79,39.00
2019-08-29 09:00,5.9,117.60,1.13,0.76,43.00
2019-08-29 10:00,6.5,107.60,1.01,0.62,45.00
2019-08-29 11:00,6.7,112.60,1.07,0.61,41.00
2019-08-29 12:00,7.1,113.60,1.26,0.68,39.00
2019-08-29 13:00,7.1,119.60,1.00,0.68,40.00
2019-08-29 14:00,6.7,115.60,1.10,0.66,38.00
2019-08-29 15:00,5.0,111.60,1.34,0.69,38.00
2019-08-29 16:00,6.1,108.60,1.39,0.80,36.00
2019-08-29 17:00,11.1,106.60,1.17,0.74,38.00
2019-08-29 18:00,11.1,98.60,1.91,0.82,35.00
2019-08-29 19:00,10.5,102.60,1.48,0.83,34.00
2019-08-29 20:00,11.1,25.60,1.81,0.84,47.00
2019-08-29 21:00,10.5,27.60,1.16,0.71,44.00
2019-08-29 22:00,10.5,67.60,1.00,0.58,36.00
2019-08-29 23:00,10.0,65.60,1.00,0.59,33.00
2019-08-30 00:00,10.5,71.60,0.83,0.52,39.00
2019-08-30 01:00,11.1,64.60,0.93,0.55,36.00
2019-08-30 02:00,10.5,54.60,0.82,0.54,39.00
2019-08-30 03:00,10.5,59.60,0.92,0.57,40.00
2019-08-30 04:00,10.5,55.60,1.02,0.58,36.00
2019-08-30 05:00,10.5,52.60,0.78,0.50,38.00
2019-08-30 06:00,10.5,66.60,0.75,0.54,38.00
2019-08-30 07:00,10.0,66.60,0.92,0.57,41.00
2019-08-30 08:00,10.5,69.60,0.86,0.52,42.00
2019-08-30 09:00,5.1,61.60,0.79,0.50,43.00
2019-08-30 10:00,10.0,44.60,0.87,0.48,44.00
2019-08-30 11:00,10.5,53.60,0.88,0.49,42.00
2019-08-30 12:00,9.5,54.60,0.74,0.46,42.00
2019-08-30 13:00,9.5,60.60,0.71,0.45,40.00
2019-08-30 14:00,10.0,58.60,0.77,0.48,39.00
2019-08-30 15:00,9.5,64.60,0.83,0.47,38.00
2019-08-30 16:00,11.1,70.60,0.85,0.48,39.00
2019-08-30 17:00,9.1,62.60,0.85,0.55,38.00
2019-08-30 18:00,10.5,63.60,0.91,0.54,36.00
2019-08-30 19:00,9.1,57.60,0.81,0.54,33.00
2019-08-30 20:00,10.0,75.60,0.80,0.51,34.00
2019-08-30 21:00,8.7,69.60,0.89,0.55,39.00
2019-08-30 22:00,10.0,63.60,0.97,0.62,39.00
2019-08-30 23:00,10.0,62.60,0.93,0.56,40.00
2019-08-31 00:00,10.0,70.60,0.76,0.54,40.00
2019-08-31 01:00,10.0,65.60,0.99,0.54,35.00
2019-08-31 02:00,9.1,64.60,0.85,0.53,35.00
2019-08-31 03:00,9.5,53.60,0.84,0.53,32.00
2019-08-31 04:00,9.1,43.60,0.82,0.52,33.00
2019-08-31 05:00,8.7,47.60,0.83,0.52,35.00
2019-08-31 06:00,8.3,56.60,0.86,0.58,34.00
2019-08-31 07:00,8.7,61.60,0.98,0.56,33.00
2019-08-31 08:00,9.5,60.60,0.91,0.60,33.00
2019-08-31 09:00,12.5,60.60,1.02,0.63,38.00
2019-08-31 10:00,10.0,54.60,1.02,0.64,38.00
2019-08-31 11:00,10.0,57.60,1.22,0.70,38.00
2019-08-31 12:00,12.5,44.60,1.04,0.65,40.00
2019-08-31 13:00,8.3,50.60,1.08,0.61,42.00
2019-08-31 14:00,11.8,44.60,0.99,0.61,39.00
2019-08-31 15:00,12.5,40.60,0.85,0.57,44.00
2019-08-31 16:00,10.0,50.60,0.86,0.54,43.00
2019-08-31 17:00,11.8,48.60,0.79,0.56,44.00
2019-08-31 18:00,11.8,56.60,1.09,0.54,35.00
2019-08-31 19:00,11.8,57.60,0.84,0.55,38.00
2019-08-31 20:00,11.8,62.60,0.87,0.53,36.00
2019-08-31 21:00,10.5,63.60,0.74,0.47,41.00
2019-08-31 22:00,11.8,45.60,0.91,0.51,37.00
2019-08-31 23:00,11.8,51.60,0.81,0.50,40.00
2019-09-01 00:00,10.0,47.60,0.79,0.48,38.00
2019-09-01 01:00,12.5,44.60,0.86,0.50,38.00
2019-09-01 02:00,8.7,45.60,0.79,0.48,38.00
2019-09-01 03:00,11.8,46.60,0.95,0.43,39.00
2019-09-01 04:00,9.1,44.60,0.74,0.47,34.00
2019-09-01 05:00,9.5,41.60,0.75,0.45,36.00
2019-09-01 06:00,10.5,46.60,0.78,0.43,38.00
2019-09-01 07:00,12.5,46.60,0.90,0.45,37.00
2019-09-01 08:00,8.7,53.60,0.89,0.44,36.00
2019-09-01 09:00,11.1,66.60,0.79,0.46,42.00
2019-09-01 10:00,11.1,54.60,0.71,0.49,40.00
2019-09-01 11:00,11.1,46.60,0.77,0.44,41.00
2019-09-01 12:00,12.5,48.60,0.68,0.44,41.00
2019-09-01 13:00,11.1,40.60,0.84,0.49,41.00
2019-09-01 14:00,12.5,41.60,0.71,0.47,41.00
2019-09-01 15:00,11.8,37.60,0.80,0.47,43.00
2019-09-01 16:00,11.8,39.60,0.79,0.46,41.00
2019-09-01 17:00,11.8,39.60,0.83,0.42,43.00
2019-09-01 18:00,11.8,37.60,0.90,0.45,37.00
2019-09-01 19:00,12.5,38.60,0.79,0.48,34.00
2019-09-01 20:00,12.5,44.60,0.84,0.46,37.00
2019-09-01 21:00,11.1,50.60,0.92,0.48,37.00
2019-09-01 22:00,12.5,39.60,0.83,0.47,37.00
2019-09-01 23:00,11.8,40.60,0.89,0.47,45.00
2019-09-02 00:00,11.8,34.60,0.84,0.50,38.00
2019-09-02 01:00,12.5,28.60,0.83,0.49,34.00
2019-09-02 02:00,12.5,33.60,0.66,0.46,37.00
2019-09-02 03:00,10.5,41.60,0.73,0.46,36.00
2019-09-02 04:00,12.5,46.60,0.83,0.48,38.00
2019-09-02 05:00,11.8,48.60,0.79,0.49,39.00
2019-09-02 06:00,9.5,53.60,0.75,0.52,38.00
2019-09-02 07:00,8.3,58.60,0.84,0.49,39.00
2019-09-02 08:00,12.5,51.60,0.83,0.52,36.00
2019-09-02 09:00,12.5,48.60,0.91,0.51,40.00
2019-09-02 10:00,8.7,53.60,0.90,0.49,37.00
2019-09-02 11:00,13.3,46.60,0.70,0.46,36.00
2019-09-02 12:00,12.5,40.60,0.73,0.49,36.00
2019-09-02 13:00,8.7,39.60,0.74,0.45,36.00
2019-09-02 14:00,12.5,39.60,0.70,0.46,41.00
2019-09-02 15:00,12.5,40.60,1.04,0.48,38.00
2019-09-02 16:00,13.3,55.60,0.71,0.46,40.00
2019-09-02 17:00,11.8,47.60,0.83,0.50,43.00
2019-09-02 18:00,12.5,49.60,0.74,0.45,41.00
2019-09-02 19:00,12.5,57.60,0.77,0.48,40.00
2019-09-02 20:00,12.5,59.60,0.81,0.52,37.00
2019-09-02 21:00,8.7,54.60,0.85,0.56,37.00
2019-09-02 22:00,12.5,47.60,0.79,0.51,39.00
2019-09-02 23:00,12.5,49.60,0.92,0.49,39.00
2019-09-03 00:00,11.8,44.60,1.13,0.51,36.00
2019-09-03 01:00,8.0,54.60,0.89,0.58,34.00
2019-09-03 02:00,10.5,57.60,0.89,0.52,35.00
2019-09-03 03:00,12.5,47.60,0.93,0.52,36.00
2019-09-03 04:00,11.8,39.60,0.86,0.51,33.00
2019-09-03 05:00,12.5,52.60,0.83,0.50,35.00
2019-09-03 06:00,8.0,59.60,0.73,0.50,39.00
2019-09-03 07:00,8.0,68.60,0.84,0.56,37.00
2019-09-03 08:00,11.8,66.60,0.96,0.57,37.00
2019-09-03 09:00,11.8,66.60,0.94,0.58,36.00
2019-09-03 10:00,3.6,65.60,0.83,0.61,36.00
2019-09-03 11:00,3.4,64.60,1.01,0.58,37.00
2019-09-03 12:00,7.7,60.60,0.93,0.59,37.00
2019-09-03 13:00,11.8,55.60,1.03,0.57,38.00
2019-09-03 14:00,7.7,56.60,1.02,0.58,39.00
2019-09-03 15:00,10.5,61.60,0.95,0.58,39.00
2019-09-03 16:00,6.9,68.60,1.05,0.63,38.00
2019-09-03 17:00,3.3,73.60,1.37,0.75,33.00
2019-09-03 18:00,3.4,80.60,1.29,0.68,36.00
2019-09-03 19:00,4.8,86.60,1.11,0.71,34.00
2019-09-03 20:00,4.4,84.60,1.41,0.81,29.00
2019-09-03 21:00,4.4,85.60,1.23,0.72,32.00
2019-09-03 22:00,4.7,86.60,1.41,0.79,32.00
2019-09-03 23:00,5.0,87.60,1.30,0.83,36.00
2019-09-04 00:00,5.3,85.60,1.11,0.80,34.00
2019-09-04 01:00,5.4,86.60,1.48,0.84,34.00
2019-09-04 02:00,3.6,80.60,1.48,0.81,37.00
2019-09-04 03:00,4.8,81.60,1.34,0.79,38.00
2019-09-04 04:00,3.8,85.60,1.41,0.81,35.00
2019-09-04 05:00,5.4,89.60,1.51,0.85,33.00
2019-09-04 06:00,4.4,89.60,1.58,0.89,33.00
2019-09-04 07:00,4.8,89.60,1.40,0.83,32.00
2019-09-04 08:00,5.4,92.60,1.41,0.82,33.00
2019-09-04 09:00,4.9,91.60,1.51,0.95,29.00
2019-09-04 10:00,4.3,89.60,1.58,0.92,29.00
2019-09-04 11:00,4.7,88.60,1.46,0.86,34.00
2019-09-04 12:00,4.0,82.60,1.28,0.86,34.00
2019-09-04 13:00,6.1,81.60,1.53,0.84,36.00
2019-09-04 14:00,5.9,76.60,1.17,0.80,36.00
2019-09-04 15:00,5.6,72.60,1.20,0.80,38.00
2019-09-04 16:00,5.0,73.60,1.18,0.72,37.00
2019-09-04 17:00,5.6,68.60,1.02,0.64,41.00
2019-09-04 18:00,6.1,67.60,1.33,0.69,40.00
2019-09-04 19:00,5.4,60.60,1.02,0.63,41.00
2019-09-04 20:00,6.5,59.60,1.06,0.66,41.00
2019-09-04 21:00,5.9,58.60,0.90,0.62,40.00
2019-09-04 22:00,6.7,62.60,1.02,0.62,40.00
2019-09-04 23:00,5.9,79.60,1.16,0.72,36.00
2019-09-05 00:00,5.6,75.60,1.01,0.67,39.00
2019-09-05 01:00,5.7,70.60,1.04,0.66,41.00
2019-09-05 02:00,5.6,59.60,1.15,0.67,41.00
2019-09-05 03:00,4.9,58.60,0.99,0.67,43.00
2019-09-05 04:00,5.6,61.60,1.01,0.63,41.00
2019-09-05 05:00,4.5,55.60,1.33,0.72,38.00
2019-09-05 06:00,5.7,58.60,1.21,0.71,39.00
2019-09-05 07:00,5.7,55.60,1.31,0.75,38.00
2019-09-05 08:00,4.9,56.60,1.06,0.70,39.00
2019-09-05 09:00,5.1,54.60,1.10,0.71,40.00
2019-09-05 10:00,5.3,55.60,1.13,0.68,41.00
2019-09-05 11:00,5.7,55.60,1.25,0.67,43.00
2019-09-05 12:00,5.4,53.60,1.06,0.64,43.00
2019-09-05 13:00,5.0,59.60,1.00,0.64,43.00
2019-09-05 14:00,5.4,57.60,1.01,0.67,44.00
2019-09-05 15:00,5.6,54.60,1.09,0.67,46.00
2019-09-05 16:00,5.1,54.60,1.14,0.70,44.00
2019-09-05 17:00,5.6,47.60,1.19,0.70,43.00
2019-09-05 18:00,5.1,40.60,1.06,0.69,41.00
2019-09-05 19:00,5.1,39.60,1.06,0.67,42.00
2019-09-05 20:00,5.7,43.60,1.05,0.64,40.00
2019-09-05 21:00,4.9,41.60,0.91,0.53,42.00
2019-09-05 22:00,5.1,48.60,0.98,0.59,41.00
2019-09-05 23:00,4.8,46.60,0.96,0.59,38.00
2019-09-06 00:00,5.3,54.60,0.89,0.59,41.00
2019-09-06 01:00,5.4,61.60,1.04,0.57,41.00
2019-09-06 02:00,5.4,63.60,1.09,0.59,40.00
2019-09-06 03:00,5.4,65.60,0.90,0.58,39.00
2019-09-06 04:00,5.4,56.60,0.88,0.55,38.00
2019-09-06 05:00,4.5,51.60,1.05,0.56,40.00
2019-09-06 06:00,5.9,49.60,0.91,0.54,42.00
2019-09-06 07:00,5.3,49.60,0.89,0.54,39.00
2019-09-06 08:00,12.5,49.60,0.78,0.50,41.00
2019-09-06 09:00,5.6,45.60,0.88,0.51,39.00
2019-09-06 10:00,5.6,42.60,0.76,0.50,37.00
2019-09-06 11:00,5.7,41.60,0.81,0.49,37.00
2019-09-06 12:00,5.1,36.60,0.81,0.43,36.00
2019-09-06 13:00,5.0,53.60,0.80,0.47,39.00
2019-09-06 14:00,5.6,53.60,0.77,0.50,38.00
2019-09-06 15:00,5.4,43.60,0.68,0.45,42.00
2019-09-06 16:00,4.9,48.60,0.73,0.47,38.00
2019-09-06 17:00,5.4,46.60,0.88,0.49,36.00
2019-09-06 18:00,5.0,46.60,0.78,0.49,39.00
2019-09-06 19:00,12.5,46.60,0.86,0.50,40.00
2019-09-06 20:00,4.4,47.60,0.77,0.47,45.00
2019-09-06 21:00,12.5,34.60,0.72,0.47,41.00
2019-09-06 22:00,12.5,33.60,0.76,0.49,43.00
2019-09-06 23:00,12.5,29.60,0.76,0.43,41.00
2019-09-07 00:00,12.5,47.60,0.69,0.45,38.00
2019-09-07 01:00,4.8,50.60,0.69,0.42,39.00
2019-09-07 02:00,11.8,47.60,0.72,0.40,38.00
2019-09-07 03:00,11.8,43.60,0.62,0.39,40.00
2019-09-07 04:00,11.8,38.60,0.58,0.38,43.00
2019-09-07 05:00,10.5,29.60,0.58,0.37,42.00
2019-09-07 06:00,11.8,23.60,0.68,0.39,42.00
2019-09-07 07:00,10.5,23.60,0.64,0.41,37.00
2019-09-07 08:00,12.5,21.60,0.69,0.44,37.00
2019-09-07 09:00,11.1,22.60,0.62,0.44,36.00
2019-09-07 10:00,10.5,29.60,0.60,0.43,38.00
2019-09-07 11:00,10.5,25.60,0.66,0.40,37.00
2019-09-07 12:00,12.5,21.60,0.64,0.45,37.00
2019-09-07 13:00,12.5,20.60,0.70,0.45,37.00
2019-09-07 14:00,13.3,19.60,0.79,0.46,46.00
2019-09-07 15:00,13.3,13.60,0.84,0.51,36.00
2019-09-07 16:00,11.8,18.60,0.82,0.46,40.00
2019-09-07 17:00,13.3,13.60,0.76,0.51,32.00
2019-09-07 18:00,12.5,11.60,0.96,0.51,34.00
2019-09-07 19:00,12.5,11.60,0.83,0.52,34.00
2019-09-07 20:00,12.5,7.60,0.89,0.54,31.00
2019-09-07 21:00,12.5,10.60,0.73,0.46,35.00
2019-09-07 22:00,11.8,3.60,0.87,0.51,34.00
2019-09-07 23:00,12.5,6.60,0.83,0.53,41.00
2019-09-08 00:00,11.8,4.60,0.89,0.55,32.00
2019-09-08 01:00,12.5,2.60,0.81,0.53,34.00
2019-09-08 02:00,12.5,0.60,0.94,0.58,32.00
2019-09-08 03:00,12.5,8.60,0.87,0.51,34.00
2019-09-08 04:00,12.5,4.60,0.82,0.51,35.00
2019-09-08 05:00,12.5,3.60,0.82,0.50,34.00
2019-09-08 06:00,12.5,5.60,0.93,0.50,33.00
2019-09-08 07:00,12.5,5.60,0.91,0.52,34.00
2019-09-08 08:00,12.5,356.60,0.97,0.58,30.00
2019-09-08 09:00,11.8,6.60,0.90,0.55,38.00
2019-09-08 10:00,12.5,2.60,0.92,0.56,30.00
2019-09-08 11:00,11.8,10.60,0.79,0.52,32.00
2019-09-08 12:00,11.8,12.60,0.83,0.48,38.00
2019-09-08 13:00,11.1,7.60,0.79,0.50,39.00
2019-09-08 14:00,11.8,13.60,0.82,0.48,44.00
2019-09-08 15:00,11.1,6.60,0.79,0.51,33.00
2019-09-08 16:00,11.1,3.60,0.79,0.53,36.00
2019-09-08 17:00,11.1,2.60,0.78,0.55,32.00
2019-09-08 18:00,11.1,5.60,0.96,0.60,30.00
2019-09-08 19:00,10.5,1.60,0.85,0.52,35.00
2019-09-08 20:00,10.5,356.60,0.87,0.53,36.00
2019-09-08 21:00,15.4,358.60,0.86,0.53,36.00
2019-09-08 22:00,13.3,356.60,1.26,0.65,31.00
2019-09-08 23:00,11.8,5.60,0.89,0.54,41.00
2019-09-09 00:00,14.3,356.60,1.11,0.66,31.00
2019-09-09 01:00,14.3,5.60,1.21,0.73,29.00
2019-09-09 02:00,14.3,351.60,1.39,0.90,21.00
2019-09-09 03:00,14.3,354.60,1.60,0.89,26.00
2019-09-09 04:00,14.3,354.60,1.33,0.99,22.00
2019-09-09 05:00,13.3,355.60,1.72,1.23,19.00
2019-09-09 06:00,13.3,359.60,1.13,0.78,28.00
2019-09-09 07:00,13.3,346.60,2.17,0.99,26.00
2019-09-09 08:00,13.3,343.60,1.49,0.88,29.00
2019-09-09 09:00,13.3,345.60,1.49,1.02,28.00
2019-09-09 10:00,13.3,347.60,1.40,0.94,30.00
2019-09-09 11:00,13.3,344.60,1.37,0.88,32.00
2019-09-09 12:00,13.3,354.60,1.26,0.80,30.00
2019-09-09 13:00,12.5,356.60,1.54,0.73,30.00
2019-09-09 14:00,13.3,358.60,1.06,0.80,34.00
2019-09-09 15:00,12.5,0.60,1.12,0.69,33.00
2019-09-09 16:00,13.3,2.60,1.19,0.73,33.00
2019-09-09 17:00,13.3,1.60,0.95,0.71,35.00
2019-09-09 18:00,12.5,354.60,1.48,0.93,26.00
2019-09-09 19:00,12.5,0.60,1.17,0.80,30.00
2019-09-09 20:00,13.3,353.60,1.28,0.76,33.00
2019-09-09 21:00,12.5,3.60,1.17,0.83,27.00
2019-09-09 22:00,12.5,355.60,1.24,0.87,27.00
2019-09-09 23:00,12.5,2.60,1.28,0.89,29.00
2019-09-10 00:00,12.5,5.60,0.98,0.61,37.00
2019-09-10 01:00,11.8,4.60,1.21,0.70,32.00
2019-09-10 02:00,12.5,1.60,1.35,0.91,27.00
2019-09-10 03:00,12.5,3.60,1.22,0.83,33.00
2019-09-10 04:00,11.8,0.60,1.29,0.83,28.00
2019-09-10 05:00,11.8,3.60,1.39,0.90,28.00
2019-09-10 06:00,12.5,4.60,1.56,0.93,25.00
2019-09-10 07:00,12.5,1.60,1.93,0.88,28.00
2019-09-10 08:00,13.3,2.60,1.76,1.03,25.00
2019-09-10 09:00,12.5,4.60,1.47,0.80,31.00
2019-09-10 10:00,11.1,8.60,1.41,0.82,31.00
2019-09-10 11:00,11.1,8.60,1.17,0.79,32.00
2019-09-10 12:00,11.1,9.60,1.26,0.81,34.00
2019-09-10 13:00,12.5,8.60,1.43,0.76,33.00
2019-09-10 14:00,12.5,11.60,1.33,0.81,35.00
2019-09-10 15:00,11.8,10.60,1.24,0.72,33.00
2019-09-10 16:00,11.8,10.60,1.50,0.76,33.00
2019-09-10 17:00,10.5,18.60,1.17,0.73,33.00
2019-09-10 18:00,12.5,10.60,1.35,0.82,28.00
2019-09-10 19:00,11.8,9.60,1.55,0.86,30.00
2019-09-10 20:00,11.8,18.60,1.39,0.76,33.00
2019-09-10 21:00,13.3,8.60,1.65,0.80,32.00
2019-09-10 22:00,12.5,8.60,1.57,0.84,34.00
2019-09-10 23:00,,,,,
2019-09-11 00:00,10.5,11.60,1.19,0.77,35.00
2019-09-11 01:00,12.5,12.60,1.38,0.74,35.00
2019-09-11 02:00,13.3,17.60,1.35,0.76,33.00
2019-09-11 03:00,13.3,19.60,1.19,0.73,32.00
2019-09-11 04:00,12.5,18.60,1.25,0.70,34.00
2019-09-11 05:00,10.5,18.60,1.41,0.75,32.00
2019-09-11 06:00,11.8,24.60,1.17,0.69,33.00
2019-09-11 07:00,10.0,25.60,1.07,0.70,34.00
2019-09-11 08:00,10.0,12.60,1.13,0.74,32.00
2019-09-11 09:00,10.5,20.60,1.19,0.71,33.00
2019-09-11 10:00,11.1,20.60,1.39,0.68,36.00
2019-09-11 11:00,9.5,16.60,1.12,0.65,38.00
2019-09-11 12:00,10.0,18.60,0.99,0.63,36.00
2019-09-11 13:00,11.1,17.60,1.00,0.64,35.00
2019-09-11 14:00,10.0,19.60,0.91,0.61,41.00
2019-09-11 15:00,9.1,26.60,1.07,0.63,37.00
2019-09-11 16:00,9.5,25.60,1.04,0.59,37.00
2019-09-11 17:00,10.5,23.60,1.12,0.64,36.00
2019-09-11 18:00,9.5,30.60,1.19,0.57,32.00
2019-09-11 19:00,9.1,26.60,1.06,0.61,34.00
2019-09-11 20:00,8.7,26.60,0.92,0.57,35.00
2019-09-11 21:00,8.7,24.60,0.82,0.56,36.00
2019-09-11 22:00,10.0,20.60,0.85,0.55,37.00
2019-09-11 23:00,8.0,27.60,0.76,0.52,39.00
2019-09-12 00:00,10.5,23.60,0.86,0.53,38.00
2019-09-12 01:00,10.0,22.60,0.96,0.57,34.00
2019-09-12 02:00,10.0,25.60,0.96,0.54,36.00
2019-09-12 03:00,10.0,39.60,1.06,0.52,40.00
2019-09-12 04:00,9.5,30.60,0.97,0.57,32.00
2019-09-12 05:00,9.5,31.60,0.81,0.51,34.00
2019-09-12 06:00,10.0,29.60,1.07,0.55,35.00
2019-09-12 07:00,9.5,26.60,0.91,0.51,33.00
2019-09-12 08:00,8.0,26.60,0.94,0.53,34.00
2019-09-12 09:00,9.5,27.60,0.96,0.57,32.00
2019-09-12 10:00,9.1,23.60,0.96,0.54,31.00
2019-09-12 11:00,9.1,26.60,0.78,0.51,35.00
2019-09-12 12:00,9.1,25.60,0.78,0.50,36.00
2019-09-12 13:00,9.1,29.60,0.78,0.51,34.00
2019-09-12 14:00,9.1,34.60,0.82,0.49,43.00
2019-09-12 15:00,9.1,34.60,0.74,0.48,37.00
2019-09-12 16:00,9.1,37.60,0.84,0.51,39.00
2019-09-12 17:00,8.7,45.60,0.72,0.46,35.00
2019-09-12 18:00,9.1,47.60,0.89,0.50,34.00
2019-09-12 19:00,9.1,54.60,0.91,0.48,38.00
2019-09-12 20:00,8.7,43.60,0.93,0.51,34.00
2019-09-12 21:00,9.5,39.60,0.91,0.47,40.00
2019-09-12 22:00,8.3,52.60,0.83,0.46,41.00
2019-09-12 23:00,8.3,54.60,0.87,0.51,36.00
2019-09-13 00:00,8.3,53.60,0.84,0.53,34.00
2019-09-13 01:00,8.7,63.60,0.97,0.58,34.00
2019-09-13 02:00,3.2,68.60,1.05,0.60,32.00
2019-09-13 03:00,3.4,74.60,1.03,0.60,31.00
2019-09-13 04:00,3.7,71.60,0.98,0.58,32.00
2019-09-13 05:00,3.6,70.60,0.86,0.57,33.00
2019-09-13 06:00,7.7,65.60,0.78,0.54,34.00
2019-09-13 07:00,7.7,62.60,0.79,0.51,34.00
2019-09-13 08:00,8.3,63.60,0.77,0.50,36.00
2019-09-13 09:00,7.7,56.60,0.73,0.47,38.00
2019-09-13 10:00,7.4,64.60,0.99,0.54,35.00
2019-09-13 11:00,9.5,61.60,0.77,0.49,38.00
2019-09-13 12:00,9.5,59.60,0.84,0.52,39.00
2019-09-13 13:00,9.1,63.60,0.80,0.50,37.00
2019-09-13 14:00,9.1,77.60,0.88,0.53,42.00
2019-09-13 15:00,8.0,68.60,0.87,0.51,36.00
2019-09-13 16:00,4.3,74.60,0.93,0.58,36.00
2019-09-13 17:00,4.1,83.60,0.96,0.58,36.00
2019-09-13 18:00,9.1,77.60,0.90,0.58,34.00
2019-09-13 19:00,4.0,79.60,0.86,0.57,32.00
2019-09-13 20:00,8.7,79.60,0.82,0.56,37.00
2019-09-13 21:00,4.3,81.60,0.87,0.54,38.00
2019-09-13 22:00,10.0,68.60,0.86,0.53,36.00
2019-09-13 23:00,10.0,68.60,0.88,0.52,36.00
2019-09-14 00:00,8.0,74.60,0.90,0.55,35.00
2019-09-14 01:00,10.5,72.60,0.87,0.56,35.00
2019-09-14 02:00,3.1,76.60,0.94,0.59,32.00
2019-09-14 03:00,11.1,74.60,0.96,0.58,32.00
2019-09-14 04:00,11.1,74.60,0.90,0.58,36.00
2019-09-14 05:00,10.0,77.60,1.00,0.62,35.00
2019-09-14 06:00,3.7,79.60,1.20,0.68,32.00
2019-09-14 07:00,3.9,79.60,1.05,0.64,33.00
2019-09-14 08:00,4.3,81.60,1.34,0.71,33.00
2019-09-14 09:00,4.5,79.60,1.27,0.80,35.00
2019-09-14 10:00,10.0,78.60,1.13,0.74,34.00
2019-09-14 11:00,4.3,73.60,1.30,0.74,36.00
2019-09-14 12:00,10.5,73.60,1.25,0.77,35.00
2019-09-14 13:00,10.5,73.60,1.07,0.71,36.00
2019-09-14 14:00,3.4,74.60,1.11,0.75,34.00
2019-09-14 15:00,10.0,76.60,1.32,0.80,32.00
2019-09-14 16:00,5.3,85.60,1.44,0.82,36.00
2019-09-14 17:00,4.9,81.60,1.24,0.80,32.00
2019-09-14 18:00,5.1,82.60,1.20,0.78,33.00
2019-09-14 19:00,5.0,82.60,1.32,0.77,29.00
2019-09-14 20:00,5.7,86.60,1.14,0.73,32.00
2019-09-14 21:00,5.4,79.60,1.25,0.78,32.00
2019-09-14 22:00,5.6,85.60,1.23,0.82,33.00
2019-09-14 23:00,5.6,79.60,1.18,0.78,32.00
2019-09-15 00:00,5.9,77.60,1.19,0.80,33.00
2019-09-15 01:00,5.7,71.60,1.17,0.77,36.00